User: anonymous   Login
Location: Unspecified
(0.0000°N, 0.0000°E)
Time: 09:19:13
(UTC+00:00)
Language:

PAYLOAD F - Orbit

View from above orbital plane
View from above orbital plane
View from above satellite
View from above satellite

Ground track
Ground track

The orbit data is extracted from the following two-line orbital elements,

1 27060U 01058F   17269.11173664  .00000005  00000-0 -31879-4 0  9991
2 27060  82.5367  82.0208 0008148 338.6969  21.3781 12.62994357725951
Epoch (UTC): 26 September 2017 02:40:54
Eccentricity: 0.0008148
inclination: 82.5367°
perigee height: 1404 km
apogee height: 1417 km
right ascension of ascending node: 82.0208°
argument of perigee: 338.6969°
revolutions per day: 12.62994357
mean anomaly at epoch: 21.3781°
orbit number at epoch: 72595

The dashed part of the orbit path shows where the satellite is in the earth's shadow,  

DLR